CZ-4C DEB, 45484

Orbit data source: Space-Track

CZ-4C DEB, 45484 is space debris in LEO originally from a launch on Tue, 10 Apr 2018 UTC launched from the Jiuquan Satellite Launch Center, China (JSC). Debris objects in space refer to the collection of defunct objects orbiting the Earth. Examples of debris include non-operational satellites, rocket bodies, and fragments generated from explosions, collisions, or faulty payload assembly.

Loading next visibility...
Identifier
45484, 2018-034M
Orbit
LEO
Country
Flag of CNCN / PRC
Related business
Manufacturer
Unknown
Mission
Spacecraft
Bus & Motor
Unknown
Mass
Unknown
Launch date (UTC)
2018-04-10 (8 years ago)
Launch vehicle
Unknown
Launch site
Jiuquan Satellite Launch Center, China (JSC)
Object type
Payload
Rocket body
Debris
Shape & HBR
Unknown shape, 0.1 m
Radar Cross Section
Small (<0.1 m²)

Expand to show TLE details & history
Last TLE update: 8 hours ago

TLE from 8 hours ago
0 CZ-4C DEB
1 45484U 18034M   25312.75006205 -.00000026  00000-0  94182-4 0  9996
2 45484  63.3906 326.7953 0246092   7.8932 352.5856 13.42926846337801
Epoch: 2025-11-08T18:00Z
TLE epoch observation values (Epoch: 2025-11-08T18:00:05.361Z)
Latitude
0.00004°
Longitude
8.59779°
Altitude
917.768 km
Speed
7.483 km/s
True Right ascension
21h 47m 10s
True Declination
0° 00' 00"
Sunlit
Object was in daylight at epoch
Visualization orbit readout
Latitude
Unknown
Longitude
Unknown
Altitude
Unknown
Speed
Unknown
Apparent Right ascension
Unknown
Apparent Declination
Unknown
Sunlit
N/A
Visualization observer readout
Local Sidereal Time
21:44:35
Azimuth
Unknown
Elevation
Unknown
Doppler factor
Unknown
Orbital elements
Apogee altitude
1,281.19 km
Perigee altitude
913.265 km
Semi-major axis
7,475.364 km
Eccentricity
0.02461
Inclination
63.3906°
RAAN
326.7953°
Arg. of periapsis
7.8932°
True anomaly
352.21026°
Mean anomaly
352.5856°
Eccentric anomaly
352.3991°
Mean motion
3.35811 °/min
Orbital period
107.2 mins
BSTAR
0.000094182
Loading maneuver chart data...
Computing Atmospheric mass density...
Loading historical data...
Loading historical data...
Loading historical data...
Loading historical data...
Loading historical data...
Loading historical data...
Loading historical data...

Documentation

Showing up to 5 results
|